[[{"header":{"parameterUnit":"m.s-1","parameterCategory":1,"la1":30.2991,"la2":30.254,"lo1":-89.0895,"lo2":-89.0444,"dy":0.0017,"dx":0.0017,"nx":28,"ny":28,"refTime":"2025-08-07T21:00:00:Z","depth":0,"parameterNumber":2,"parameterNumberName":"U-component_of_WINDS"},"data":[0,0,0,0,0,0,0,0,0,0,0,0,0,0,0,0,0,0,0,0,0,0,0,0,0,0,0,0,0,0,0,0,0,0,0,0,0,0,0,0,0,0,0,0,0,0,0,0,0,0,0,0,0,0,0,0,0,0,-2.6918,-2.6919,0,-2.6968,-2.6968,-2.6969,-2.6921,-2.6919,-2.6917,-2.6916,-2.6965,-2.6968,-2.6971,0,0,0,0,0,0,0,0,0,0,0,0,0,-2.6781,-2.6783,-2.6918,-2.6919,-2.6919,-2.6967,-2.6968,-2.6969,-2.6921,-2.6919,-2.6917,-2.6915,-2.6964,-2.6967,-2.6971,0,0,0,0,0,0,0,0,0,0,0,0,0,-2.6836,-2.6784,-2.6918,-2.6902,-2.6901,-2.6967,-2.6968,-2.6969,-2.6922,-2.6919,-2.6916,-2.6914,-2.6962,-2.6967,-2.6971,-2.7056,0,0,-2.6985,-2.6987,0,0,0,0,0,0,0,0,-2.6833,-2.6841,-2.6903,-2.6903,-2.6902,-2.6935,-2.6938,-2.6998,-2.6923,-2.6914,-2.6916,-2.6912,-2.6957,-2.6962,-2.6977,-2.7059,-2.7061,-2.6986,-2.6989,-2.6991,-2.6992,0,0,0,0,0,0,0,-2.6829,-2.6839,-2.6937,-2.6904,-2.6903,-2.6891,-2.6896,-2.6949,-2.6951,-2.6914,-2.6911,-2.6918,-2.6956,-2.6973,-2.6978,-2.7061,-2.6986,-2.699,-2.6993,-2.6994,-2.7213,-2.7216,0,0,0,0,0,0,-2.6827,-2.6836,-2.6936,-2.6939,-2.686,-2.6896,-2.6901,-2.6927,-2.695,-2.6951,-2.692,-2.6915,-2.6967,-2.6973,-2.698,-2.7079,-2.6991,-2.6995,-2.6998,-2.721,-2.7214,-2.7217,0,0,0,0,0,0,-2.6825,-2.6837,-2.6934,-2.6887,-2.6898,-2.6901,-2.6931,-2.693,-2.6947,-2.6954,-2.6954,-2.6937,-2.6965,-2.6973,-2.7037,-2.708,-2.6997,-2.7001,-2.7206,-2.7211,-2.7215,-2.7279,0,0,0,0,0,0,-2.6821,-2.6836,-2.6869,-2.6888,-2.6901,-2.6992,-2.6934,-2.6933,-2.6955,-2.6949,-2.697,-2.6971,-2.6963,-2.7031,-2.7042,-2.7085,-2.7005,-2.7202,-2.7208,-2.7214,-2.7273,-2.7285,-2.7296,0,0,0,0,0,-2.6816,-2.6885,-2.6871,-2.6883,-2.6942,-2.6994,-2.7001,-2.6991,-2.6959,-2.6991,-2.6996,-2.697,-2.7074,-2.7038,-2.705,-2.7095,-2.72,-2.7207,-2.7213,-2.7268,-2.7283,-2.7295,0,0,0,0,0,0,-2.6871,-2.6887,-2.6872,-2.6949,-2.697,-2.6986,-2.7027,-2.7008,-2.7039,-2.7032,-2.7018,-2.7023,-2.709,-2.7099,-2.7059,-2.7177,-2.7131,-2.7141,-2.7169,-2.7183,-2.7194,-2.7189,-2.7009,0,0,0,0,0,-2.6892,-2.6933,-2.6945,-2.7012,-2.7024,-2.7024,-2.7046,-2.7037,-2.7058,-2.7067,-2.7076,-2.7098,-2.7135,-2.716,-2.7195,-2.7275,-2.7278,-2.7312,-2.7323,-2.7332,-2.734,-2.7381,-2.7396,-2.7239,-2.7239,-2.7239,0,0,-2.6936,-2.695,-2.6977,-2.7023,-2.7039,-2.7081,-2.7032,-2.7079,-2.711,-2.7074,-2.7134,-2.7142,-2.7165,-2.7237,-2.727,-2.7247,-2.7384,-2.7341,-2.7348,-2.7351,-2.739,-2.7404,-2.7418,-2.7244,-2.7243,-2.7242,0,0,-2.7036,-2.7052,-2.7109,-2.7125,-2.715,-2.7149,-2.7163,-2.7182,-2.7185,-2.7246,-2.722,-2.7256,-2.7321,-2.7338,-2.7355,-2.7462,-2.7439,-2.7474,-2.7532,-2.7572,-2.7585,-2.7595,-2.7632,-2.7645,-2.7482,-2.7482,-2.7483,0,-2.7087,-2.7151,-2.714,-2.7189,-2.7209,-2.718,-2.7236,-2.7253,-2.7287,-2.7302,-2.7276,-2.7356,-2.7369,-2.7444,-2.747,-2.7486,-2.75,-2.7471,-2.7584,-2.7595,-2.7604,-2.7639,-2.7653,-2.7486,-2.7486,-2.7485,-2.7485,0,-2.7211,-2.7256,-2.7298,-2.7332,-2.7358,-2.741,-2.7407,-2.7434,-2.7422,-2.7424,-2.7486,-2.7501,-2.7537,-2.7555,-2.7544,-2.7628,-2.7613,-2.7586,-2.7539,-2.7623,-2.7655,-2.7669,-2.7492,-2.749,-2.7489,-2.7488,0,0,-2.7346,-2.7374,-2.739,-2.7404,-2.7429,-2.7462,-2.7513,-2.7549,-2.7572,-2.7597,-2.7638,-2.7694,-2.7669,-2.7688,-2.7679,-2.7715,-2.7796,-2.7683,-2.7684,-2.7702,-2.7887,-2.7906,-2.7921,-2.7782,-2.7785,-2.7787,-2.7885,0,-2.7446,-2.7535,-2.7526,-2.761,-2.7649,-2.7622,-2.7666,-2.7685,-2.7688,-2.7722,-2.7725,-2.7764,-2.7729,-2.7741,-2.7775,-2.7779,-2.7833,-2.7772,-2.7818,-2.782,-2.7811,-2.7938,-2.7958,-2.805,-2.7897,-2.7899,-2.7901,0,-2.7574,-2.7604,-2.7691,-2.7709,-2.7725,-2.7765,-2.7796,-2.783,-2.7851,-2.7851,-2.7873,-2.7857,-2.7907,-2.7861,-2.7928,-2.7887,-2.7906,-2.7911,-2.7914,-2.7916,-2.7864,-2.7942,-2.8079,-2.8092,-2.7921,-2.7919,-2.7918,0,-2.7661,-2.7723,-2.7783,-2.7796,-2.7819,-2.7847,-2.7858,-2.7877,-2.7898,-2.7926,-2.794,-2.7974,-2.7991,-2.8017,-2.8011,-2.7978,-2.8079,-2.8033,-2.8079,-2.8079,-2.81,-2.8098,-2.824,-2.8116,-2.8116,-2.8115,-2.8115,0,-2.7772,-2.7826,-2.7822,-2.7859,-2.7918,-2.7908,-2.7967,-2.7974,-2.799,-2.8027,-2.8006,-2.804,-2.8031,-2.8065,-2.8061,-2.8116,-2.8125,-2.8125,-2.8123,-2.8126,-2.8125,-2.8136,-2.8128,-2.8119,-2.8118,-2.8117,-2.8117,0,-2.7879,-2.7878,-2.7941,-2.7958,-2.7963,-2.8006,-2.8019,-2.8053,-2.8055,-2.8102,-2.8112,-2.8114,-2.8153,-2.815,-2.8194,-2.8191,-2.8259,-2.8251,-2.8252,-2.8249,-2.8294,-2.8289,-2.8446,-2.8465,-2.8331,-2.8332,-2.8333,0,-2.7949,-2.7989,-2.801,-2.8033,-2.8046,-2.8084,-2.8106,-2.8098,-2.8122,-2.8149,-2.8179,-2.8216,-2.8245,-2.8309,-2.8314,-2.8347,-2.8337,-2.839,-2.8342,-2.8343,-2.8335,-2.8332,-2.8335,-2.8399,-2.84,-2.8401,-2.8402,0,-2.8072,-2.8069,-2.8102,-2.8135,-2.8162,-2.8188,-2.8211,-2.8231,-2.8225,-2.8253,-2.8293,-2.8315,-2.836,-2.8397,-2.8428,-2.8438,-2.8419,-2.8418,-2.843,-2.8432,-2.843,-2.8429,-2.8275,-2.8414,-2.8413,-2.8412,-2.8411,-2.8411,-2.816,-2.8194,-2.8214,-2.8251,-2.8268,-2.829,-2.8322,-2.8328,-2.8361,-2.8397,-2.8391,-2.8435,-2.8454,-2.8494,-2.8508,-2.8541,-2.8522,-2.854,-2.8544,-2.8548,-2.8552,-2.8427,-2.8547,-2.8547,-2.8547,-2.8546,-2.8546,0,-2.828,-2.8291,-2.8326,-2.8359,-2.8388,-2.8369,-2.8393,-2.8418,-2.8458,-2.8478,-2.8507,-2.8552,-2.8587,-2.8595,-2.8629,-2.8654,-2.8646,-2.8663,-2.866,-2.8662,-2.8569,-2.8554,-2.8669,-2.8669,-2.8669,-2.8669,-2.8669,-2.8669,-2.8345,-2.8402,-2.8402,-2.8466,-2.8477,-2.852,-2.8536,-2.8555,-2.8571,-2.8622,-2.8652,-2.8657,-2.8672,-2.8706,-2.8737,-2.8739,-2.8751,-2.8771,-2.8769,-2.8681,-2.8669,-2.8657,-2.8643,-2.8775,-2.8775,-2.8859,-2.886,-2.886]},{"header":{"parameterUnit":"m.s-1","parameterCategory":1,"la1":30.2991,"la2":30.254,"lo1":-89.0895,"lo2":-89.0444,"dy":0.0017,"dx":0.0017,"nx":28,"ny":28,"refTime":"2025-08-07T21:00:00:Z","depth":0,"parameterNumber":3,"parameterNumberName":"V-component_of_WINDS"},"data":[0,0,0,0,0,0,0,0,0,0,0,0,0,0,0,0,0,0,0,0,0,0,0,0,0,0,0,0,0,0,0,0,0,0,0,0,0,0,0,0,0,0,0,0,0,0,0,0,0,0,0,0,0,0,0,0,0,0,-0.99,-0.9901,0,-0.9947,-0.9947,-0.9948,-0.9977,-0.9977,-0.9977,-0.9977,-1.0024,-1.0025,-1.0027,0,0,0,0,0,0,0,0,0,0,0,0,0,-0.9836,-0.9837,-0.99,-0.9901,-0.9902,-0.9947,-0.9947,-0.9948,-0.9977,-0.9977,-0.9977,-0.9977,-1.0024,-1.0025,-1.0027,0,0,0,0,0,0,0,0,0,0,0,0,0,-0.9872,-0.9838,-0.99,-0.9921,-0.9924,-0.9947,-0.9947,-0.9948,-0.9977,-0.9977,-0.9977,-0.9977,-1.0024,-1.0025,-1.0027,-1.0032,0,0,-1.0032,-1.0033,0,0,0,0,0,0,0,0,-0.987,-0.9874,-0.9918,-0.992,-0.9923,-0.9956,-0.9942,-0.9976,-0.9977,-0.9957,-0.9977,-0.9978,-1.0001,-1.0005,-1.0013,-1.0035,-1.0037,-1.0032,-1.0033,-1.0034,-1.0034,0,0,0,0,0,0,0,-0.9867,-0.9872,-0.9919,-0.9918,-0.9921,-0.9928,-0.9934,-0.9949,-0.9977,-0.9958,-0.9961,-0.9966,-1.0003,-1.0011,-1.0014,-1.0037,-1.0032,-1.0033,-1.0035,-1.0035,-1.0066,-1.0066,0,0,0,0,0,0,-0.9861,-0.987,-0.9917,-0.992,-0.9896,-0.9929,-0.9935,-0.9945,-0.9977,-0.9982,-0.9965,-0.9967,-1.0009,-1.0013,-1.0016,-1.0025,-1.0034,-1.0035,-1.0036,-1.0066,-1.0066,-1.0066,0,0,0,0,0,0,-0.986,-0.9865,-0.9915,-0.9896,-0.9903,-0.993,-0.9941,-0.9946,-0.9955,-0.9982,-0.9988,-0.9969,-1.0009,-1.0014,-1.0028,-1.0027,-1.0036,-1.0038,-1.0066,-1.0066,-1.0066,-1.0042,0,0,0,0,0,0,-0.9858,-0.9865,-0.9867,-0.9895,-0.9904,-0.9927,-0.9941,-0.9947,-0.9957,-0.996,-0.9987,-0.9992,-1.0009,-1.0026,-1.003,-1.0029,-1.0039,-1.0066,-1.0066,-1.0066,-1.0043,-1.0041,-1.0039,0,0,0,0,0,-0.9856,-0.9858,-0.9867,-0.9872,-0.9907,-0.9926,-0.9931,-0.9951,-0.9957,-0.996,-0.9978,-0.9991,-1.0026,-1.0027,-1.0032,-1.0032,-1.0067,-1.0066,-1.0066,-1.0044,-1.0041,-1.0039,0,0,0,0,0,0,-0.9829,-0.9862,-0.9872,-0.9884,-0.9902,-0.9931,-0.9935,-0.9948,-0.9964,-0.9966,-0.999,-0.9996,-1.0008,-1.0021,-1.0021,-1.0039,-1.0048,-1.0049,-1.003,-1.0027,-1.0026,-1.0022,-1.004,0,0,0,0,0,-0.9824,-0.9837,-0.9866,-0.9874,-0.9882,-0.9907,-0.9916,-0.993,-0.995,-0.9958,-0.9977,-0.9995,-1.001,-1.002,-1.0035,-1.0045,-1.0052,-1.0048,-1.0046,-1.0044,-1.0044,-1.0051,-1.0049,-1.0064,-1.0064,-1.0064,0,0,-0.9815,-0.9835,-0.9842,-0.9869,-0.9884,-0.9897,-0.9913,-0.9926,-0.9936,-0.9959,-0.9974,-0.9989,-1.0011,-1.0023,-1.0029,-1.0034,-1.0042,-1.0044,-1.0042,-1.0043,-1.005,-1.0048,-1.0047,-1.0064,-1.0064,-1.0064,0,0,-0.9805,-0.9821,-0.983,-0.9845,-0.9868,-0.9885,-0.9887,-0.9914,-0.9925,-0.994,-0.9958,-0.997,-0.9996,-1.0011,-1.0022,-1.0017,-1.003,-1.0022,-1.0012,-1.0018,-1.0016,-1.0015,-1.0014,-1.0013,-1.0022,-1.0022,-1.0022,0,-0.979,-0.981,-0.9832,-0.9844,-0.9856,-0.9878,-0.9887,-0.99,-0.9928,-0.9935,-0.9941,-0.9974,-0.999,-1.0006,-1.0005,-1.0013,-1.0016,-1.0019,-1.0015,-1.0014,-1.0014,-1.0012,-1.0012,-1.0021,-1.0021,-1.0021,-1.0021,0,-0.9791,-0.9805,-0.9809,-0.9835,-0.9847,-0.9857,-0.988,-0.989,-0.9903,-0.9919,-0.9934,-0.9955,-0.9975,-0.998,-0.9993,-0.9998,-1.0001,-1.001,-1.002,-1.0011,-1.001,-1.0009,-1.0019,-1.0019,-1.002,-1.002,0,0,-0.9764,-0.9803,-0.9804,-0.9816,-0.9844,-0.9855,-0.9866,-0.9886,-0.9893,-0.9912,-0.9922,-0.9943,-0.9953,-0.9965,-0.998,-0.9985,-0.998,-0.9994,-0.9995,-0.9991,-0.9987,-0.9979,-0.9978,-0.9989,-0.9989,-0.9989,-0.9985,0,-0.9758,-0.9779,-0.98,-0.9814,-0.9826,-0.9848,-0.9858,-0.9876,-0.9892,-0.9905,-0.9922,-0.9937,-0.9948,-0.9955,-0.9962,-0.998,-0.998,-0.998,-0.9999,-0.9999,-0.9992,-0.9978,-0.997,-0.9965,-0.9985,-0.9985,-0.9985,0,-0.9753,-0.977,-0.9785,-0.9812,-0.9818,-0.9827,-0.9847,-0.9859,-0.988,-0.9891,-0.9905,-0.9921,-0.9934,-0.9943,-0.9961,-0.9961,-0.997,-0.998,-0.998,-0.9982,-0.9991,-0.9979,-0.9964,-0.9963,-0.9985,-0.9985,-0.9985,0,-0.9731,-0.9759,-0.9771,-0.9781,-0.9813,-0.9818,-0.9832,-0.9853,-0.9864,-0.9881,-0.9889,-0.9907,-0.9918,-0.9932,-0.9953,-0.9957,-0.9969,-0.9979,-0.9978,-0.9977,-0.9979,-0.9978,-0.9964,-0.9985,-0.9985,-0.9985,-0.9985,0,-0.9721,-0.973,-0.9762,-0.977,-0.978,-0.9804,-0.9813,-0.9828,-0.9847,-0.9858,-0.9879,-0.9889,-0.9916,-0.9929,-0.9945,-0.9958,-0.9962,-0.9971,-0.9975,-0.9969,-0.9968,-0.9975,-0.9976,-0.9985,-0.9985,-0.9985,-0.9985,0,-0.9699,-0.9721,-0.9736,-0.9765,-0.9772,-0.9779,-0.9803,-0.9812,-0.9829,-0.9842,-0.9847,-0.9873,-0.989,-0.9912,-0.9936,-0.9947,-0.9957,-0.9964,-0.995,-0.9952,-0.995,-0.995,-0.9939,-0.9939,-0.996,-0.996,-0.996,0,-0.9691,-0.9698,-0.9727,-0.9736,-0.9749,-0.9764,-0.9775,-0.9799,-0.9809,-0.9834,-0.984,-0.9858,-0.9874,-0.99,-0.9921,-0.9939,-0.9946,-0.9941,-0.9949,-0.9942,-0.9946,-0.9945,-0.9945,-0.9939,-0.9939,-0.9938,-0.9938,0,-0.9674,-0.9685,-0.97,-0.9719,-0.9732,-0.9749,-0.9766,-0.9772,-0.98,-0.9811,-0.9828,-0.9841,-0.9865,-0.9883,-0.9904,-0.9918,-0.9932,-0.9936,-0.9936,-0.993,-0.9921,-0.9925,-0.9944,-0.9936,-0.9936,-0.9936,-0.9936,-0.9936,-0.9658,-0.9665,-0.9687,-0.9704,-0.972,-0.9736,-0.9745,-0.9763,-0.9778,-0.98,-0.9813,-0.983,-0.9851,-0.9881,-0.9895,-0.9908,-0.9914,-0.9915,-0.9915,-0.9915,-0.9913,-0.9919,-0.9912,-0.9912,-0.9912,-0.9913,-0.9913,0,-0.9642,-0.9657,-0.9673,-0.9696,-0.9709,-0.9722,-0.9742,-0.9752,-0.9767,-0.9786,-0.9801,-0.9821,-0.9839,-0.9862,-0.9881,-0.9888,-0.9895,-0.9892,-0.9891,-0.9894,-0.9907,-0.9904,-0.9886,-0.9886,-0.9886,-0.9886,-0.9886,-0.9886,-0.9635,-0.9648,-0.9661,-0.9683,-0.9698,-0.9715,-0.9725,-0.974,-0.9755,-0.9777,-0.9792,-0.9806,-0.9827,-0.9848,-0.9865,-0.9871,-0.9877,-0.9872,-0.988,-0.9891,-0.9893,-0.9896,-0.9893,-0.9873,-0.9873,-0.9867,-0.9867,-0.9867]}]]